| time (UTC) | temp F | wind direction | speed knots | gust knots | rain 1hr in | rain 24hr in | rain mn in | humidity % | barometer mb |
| 20260509070105 | 56 | 74 | 2.6 | 4.3 | 0.00 | 0.00 | 0.00 | 86 | 1019.9 |
| 20260509065604 | 55 | 85 | 2.6 | 7.0 | 0.00 | 0.00 | 0.00 | 86 | 1019.9 |
| 20260509065105 | 55 | 50 | 2.6 | 7.0 | 0.00 | 0.00 | 0.00 | 86 | 1019.9 |
| 20260509064606 | 55 | 12 | 2.6 | 5.2 | 0.00 | 0.00 | 0.00 | 87 | 1019.9 |
| 20260509064104 | 54 | 4 | 2.6 | 5.2 | 0.00 | 0.00 | 0.00 | 87 | 1019.9 |
| 20260509063603 | 54 | 23 | 3.5 | 5.2 | 0.00 | 0.00 | 0.00 | 87 | 1019.9 |
| 20260509063107 | 54 | 42 | 3.5 | 7.0 | 0.00 | 0.00 | 0.00 | 87 | 1019.9 |
| 20260509062608 | 54 | 11 | 2.6 | 7.0 | 0.00 | 0.00 | 0.00 | 88 | 1019.9 |
| 20260509062107 | 53 | 10 | 2.6 | 5.2 | 0.00 | 0.00 | 0.00 | 89 | 1019.9 |
| 20260509061607 | 53 | 54 | 2.6 | 5.2 | 0.00 | 0.00 | 0.00 | 89 | 1019.9 |
| 20260509061135 | 53 | 82 | 1.7 | 4.3 | 0.00 | 0.00 | 0.00 | 90 | 1019.9 |
| 20260509060104 | 52 | 25 | 1.7 | 4.3 | 0.00 | 0.00 | 0.00 | 92 | 1020.0 |
| 20260509055604 | 52 | 18 | 1.7 | 4.3 | 0.00 | 0.00 | 0.00 | 92 | 1019.9 |
| 20260509055105 | 51 | 44 | 1.7 | 3.5 | 0.00 | 0.00 | 0.00 | 93 | 1019.9 |
| 20260509054602 | 51 | 65 | 1.7 | 3.5 | 0.00 | 0.00 | 0.00 | 94 | 1019.8 |
| 20260509054104 | 51 | 60 | 1.7 | 3.5 | 0.00 | 0.00 | 0.00 | 94 | 1019.8 |
| 20260509053603 | 50 | 28 | 1.7 | 3.5 | 0.00 | 0.00 | 0.00 | 94 | 1019.9 |
| 20260509053104 | 49 | 30 | 1.7 | 3.5 | 0.00 | 0.00 | 0.00 | 94 | 1019.8 |
| 20260509052634 | 49 | 7 | 2.6 | 3.5 | 0.00 | 0.00 | 0.00 | 94 | 1019.7 |
| 20260509051644 | 48 | 0 | 1.7 | 3.5 | 0.00 | 0.00 | 0.00 | 94 | 1019.7 |
| 20260509050630 | 47 | 45 | 1.7 | 4.3 | 0.00 | 0.00 | 0.00 | 93 | 1019.7 |
| 20260509045606 | 47 | 9 | 0.9 | 2.6 | 0.00 | 0.00 | 0.00 | 93 | 1019.7 |
| 20260509045103 | 47 | 9 | 0.9 | 2.6 | 0.00 | 0.00 | 0.00 | 93 | 1019.6 |
| 20260509044606 | 47 | 9 | 0.9 | 2.6 | 0.00 | 0.00 | 0.00 | 92 | 1019.6 |
| 20260509044059 | 47 | 9 | 1.7 | 2.6 | 0.00 | 0.00 | 0.00 | 92 | 1019.6 |
| 20260509043559 | 47 | 9 | 1.7 | 2.6 | 0.00 | 0.00 | 0.00 | 92 | 1019.6 |
| 20260509043126 | 47 | 9 | 1.7 | 3.5 | 0.00 | 0.00 | 0.00 | 92 | 1019.5 |
| 20260509042059 | 47 | 29 | 1.7 | 2.6 | 0.00 | 0.00 | 0.00 | 92 | 1019.6 |
| 20260509041602 | 47 | 29 | 1.7 | 2.6 | 0.00 | 0.00 | 0.00 | 92 | 1019.4 |
| 20260509041059 | 47 | 29 | 1.7 | 2.6 | 0.00 | 0.00 | 0.00 | 92 | 1019.5 |
| 20260509040556 | 47 | 33 | 0.9 | 2.6 | 0.00 | 0.00 | 0.00 | 91 | 1019.5 |
| 20260509040055 | 47 | 39 | 0.9 | 1.7 | 0.00 | 0.00 | 0.00 | 91 | 1019.5 |
| 20260509035554 | 47 | 39 | 0.9 | 2.6 | 0.00 | 0.00 | 0.00 | 91 | 1019.4 |
| 20260509035056 | 48 | 39 | 0.9 | 2.6 | 0.00 | 0.00 | 0.00 | 91 | 1019.4 |
| 20260509034632 | 48 | 35 | 1.7 | 2.6 | 0.00 | 0.00 | 0.00 | 91 | 1019.4 |
| 20260509033553 | 48 | 37 | 1.7 | 2.6 | 0.00 | 0.00 | 0.00 | 91 | 1019.4 |
| 20260509033051 | 48 | 48 | 1.7 | 2.6 | 0.00 | 0.00 | 0.00 | 90 | 1019.4 |
| 20260509032555 | 48 | 60 | 1.7 | 2.6 | 0.00 | 0.00 | 0.00 | 90 | 1019.5 |
| 20260509032051 | 49 | 60 | 1.7 | 3.5 | 0.00 | 0.00 | 0.00 | 90 | 1019.5 |
| 20260509031550 | 49 | 60 | 1.7 | 3.5 | 0.00 | 0.00 | 0.00 | 90 | 1019.5 |
| 20260509031057 | 49 | 48 | 1.7 | 3.5 | 0.00 | 0.00 | 0.00 | 91 | 1019.5 |
| 20260509030633 | 49 | 59 | 2.6 | 3.5 | 0.00 | 0.00 | 0.00 | 91 | 1019.6 |
| 20260509025558 | 49 | 51 | 3.5 | 5.2 | 0.00 | 0.00 | 0.00 | 91 | 1019.6 |
| 20260509025233 | 49 | 52 | 2.6 | 5.2 | 0.00 | 0.00 | 0.00 | 91 | 1019.6 |
| 20260509023548 | 48 | 68 | 2.6 | 3.5 | 0.00 | 0.00 | 0.00 | 91 | 1019.6 |
| 20260509023105 | 48 | 70 | 1.7 | 3.5 | 0.00 | 0.00 | 0.00 | 90 | 1019.6 |
| 20260509022714 | 48 | 48 | 1.7 | 3.5 | 0.00 | 0.00 | 0.00 | 90 | 1019.6 |
| 20260509020543 | 48 | 60 | 1.7 | 2.6 | 0.00 | 0.00 | 0.00 | 89 | 1019.7 |
| 20260509020039 | 48 | 60 | 1.7 | 2.6 | 0.00 | 0.00 | 0.00 | 88 | 1019.6 |
| 20260509015539 | 48 | 101 | 0.9 | 1.7 | 0.00 | 0.00 | 0.00 | 88 | 1019.6 |
| 20260509015039 | 48 | 102 | 0.9 | 1.7 | 0.00 | 0.00 | 0.00 | 88 | 1019.6 |
| 20260509014534 | 48 | 102 | 0.0 | 0.9 | 0.00 | 0.00 | 0.00 | 88 | 1019.6 |
| 20260509014034 | 49 | 102 | 0.0 | 0.9 | 0.00 | 0.00 | 0.00 | 87 | 1019.6 |
| 20260509013534 | 49 | 101 | 0.0 | 0.0 | 0.00 | 0.00 | 0.00 | 88 | 1019.6 |
| 20260509013031 | 49 | 101 | 0.0 | 0.9 | 0.00 | 0.00 | 0.00 | 87 | 1019.6 |
| 20260509012531 | 49 | 101 | 0.0 | 0.9 | 0.00 | 0.00 | 0.00 | 87 | 1019.7 |
| 20260509012032 | 49 | 102 | 0.9 | 1.7 | 0.00 | 0.00 | 0.00 | 87 | 1019.6 |
| 20260509011529 | 50 | 102 | 0.9 | 1.7 | 0.00 | 0.00 | 0.00 | 87 | 1019.7 |
| 20260509011029 | 50 | 102 | 0.9 | 2.6 | 0.00 | 0.00 | 0.00 | 87 | 1019.7 |
| 20260509010530 | 50 | 89 | 0.9 | 2.6 | 0.00 | 0.00 | 0.00 | 87 | 1019.7 |
| 20260509010027 | 50 | 98 | 1.7 | 2.6 | 0.00 | 0.00 | 0.00 | 87 | 1019.7 |
| 20260509005531 | 50 | 83 | 2.6 | 5.2 | 0.00 | 0.00 | 0.00 | 87 | 1019.7 |
| 20260509005027 | 50 | 87 | 3.5 | 5.2 | 0.00 | 0.00 | 0.00 | 87 | 1019.7 |
| 20260509004527 | 50 | 74 | 2.6 | 5.2 | 0.00 | 0.00 | 0.00 | 87 | 1019.6 |
| 20260509004027 | 50 | 75 | 1.7 | 5.2 | 0.00 | 0.00 | 0.00 | 87 | 1019.6 |
| 20260509003526 | 50 | 83 | 1.7 | 3.5 | 0.00 | 0.00 | 0.00 | 87 | 1019.6 |
| 20260509003033 | 50 | 91 | 1.7 | 5.2 | 0.00 | 0.00 | 0.00 | 87 | 1019.7 |
| 20260509002526 | 50 | 82 | 2.6 | 5.2 | 0.00 | 0.00 | 0.00 | 86 | 1019.7 |
| 20260509002027 | 50 | 79 | 2.6 | 5.2 | 0.00 | 0.00 | 0.00 | 86 | 1019.7 |
| 20260509001528 | 51 | 75 | 2.6 | 5.2 | 0.00 | 0.00 | 0.00 | 86 | 1019.7 |
| 20260509001030 | 51 | 73 | 2.6 | 5.2 | 0.00 | 0.00 | 0.00 | 86 | 1019.7 |
| 20260509000525 | 51 | 73 | 2.6 | 6.1 | 0.00 | 0.00 | 0.00 | 85 | 1019.8 |
| 20260509000029 | 51 | 81 | 2.6 | 6.1 | 0.00 | 0.00 | 0.00 | 85 | 1019.7 |
| 20260508235526 | 51 | 77 | 3.5 | 6.1 | 0.00 | 0.00 | 0.00 | 85 | 1019.8 |
| 20260508235029 | 51 | 82 | 3.5 | 6.1 | 0.00 | 0.00 | 0.00 | 84 | 1019.7 |
| 20260508234526 | 51 | 66 | 3.5 | 6.1 | 0.00 | 0.00 | 0.00 | 85 | 1019.8 |
| 20260508234028 | 51 | 72 | 4.3 | 6.1 | 0.00 | 0.00 | 0.00 | 85 | 1019.7 |
| 20260508233526 | 51 | 71 | 4.3 | 6.1 | 0.00 | 0.00 | 0.00 | 85 | 1019.8 |
| 20260508233025 | 51 | 54 | 4.3 | 6.1 | 0.00 | 0.00 | 0.00 | 86 | 1019.7 |
| 20260508232525 | 51 | 58 | 3.5 | 6.1 | 0.00 | 0.00 | 0.00 | 86 | 1019.8 |
| 20260508232025 | 50 | 56 | 2.6 | 5.2 | 0.00 | 0.00 | 0.00 | 87 | 1019.7 |
| 20260508231524 | 50 | 72 | 1.7 | 5.2 | 0.00 | 0.00 | 0.00 | 86 | 1019.7 |
| 20260508231116 | 50 | 63 | 1.7 | 3.5 | 0.00 | 0.00 | 0.00 | 85 | 1019.6 |
| 20260508225519 | 51 | 0 | 0.9 | 1.7 | 0.00 | 0.00 | 0.00 | 84 | 1019.7 |
| 20260508225017 | 51 | 0 | 0.9 | 1.7 | 0.00 | 0.00 | 0.00 | 84 | 1019.6 |
| 20260508224517 | 51 | 0 | 0.9 | 1.7 | 0.00 | 0.00 | 0.00 | 82 | 1019.7 |
| 20260508224016 | 51 | 0 | 0.9 | 1.7 | 0.00 | 0.00 | 0.00 | 82 | 1019.6 |
| 20260508223514 | 51 | 0 | 0.9 | 2.6 | 0.00 | 0.00 | 0.00 | 82 | 1019.7 |
| 20260508223013 | 51 | 0 | 0.9 | 2.6 | 0.00 | 0.00 | 0.00 | 81 | 1019.7 |
| 20260508222512 | 52 | 0 | 0.9 | 2.6 | 0.00 | 0.00 | 0.00 | 80 | 1019.8 |
| 20260508222014 | 52 | 0 | 0.0 | 1.7 | 0.00 | 0.00 | 0.00 | 80 | 1019.8 |
| 20260508221513 | 52 | 0 | 0.9 | 1.7 | 0.00 | 0.00 | 0.00 | 80 | 1019.7 |
| 20260508221056 | 52 | 0 | 0.9 | 2.6 | 0.00 | 0.00 | 0.00 | 80 | 1019.8 |
| 20260508215510 | 53 | 354 | 1.7 | 3.5 | 0.00 | 0.00 | 0.00 | 79 | 1019.7 |
| 20260508215009 | 53 | 15 | 0.9 | 3.5 | 0.00 | 0.00 | 0.00 | 79 | 1019.7 |
| 20260508214507 | 53 | 16 | 0.9 | 3.5 | 0.00 | 0.00 | 0.00 | 78 | 1019.7 |
| 20260508214034 | 54 | 35 | 1.7 | 3.5 | 0.00 | 0.00 | 0.00 | 77 | 1019.8 |
| 20260508213008 | 54 | 29 | 0.9 | 1.7 | 0.00 | 0.00 | 0.00 | 76 | 1019.8 |
| 20260508212528 | 54 | 29 | 0.9 | 1.7 | 0.00 | 0.00 | 0.00 | 76 | 1019.9 |
| 20260508211505 | 55 | 10 | 0.9 | 2.6 | 0.00 | 0.00 | 0.00 | 75 | 1019.9 |
| 20260508211031 | 55 | 2 | 0.9 | 3.5 | 0.00 | 0.00 | 0.00 | 75 | 1019.8 |
| 20260508210007 | 55 | 13 | 0.9 | 3.5 | 0.00 | 0.00 | 0.00 | 74 | 1019.7 |
| 20260508205504 | 55 | 16 | 1.7 | 3.5 | 0.00 | 0.00 | 0.00 | 74 | 1019.6 |
| 20260508205005 | 56 | 2 | 1.7 | 3.5 | 0.00 | 0.00 | 0.00 | 74 | 1019.6 |
| 20260508204503 | 56 | 10 | 1.7 | 3.5 | 0.00 | 0.00 | 0.00 | 74 | 1019.7 |
| 20260508204005 | 56 | 44 | 0.9 | 1.7 | 0.00 | 0.00 | 0.00 | 74 | 1019.6 |
| 20260508203504 | 56 | 357 | 0.0 | 1.7 | 0.00 | 0.00 | 0.00 | 73 | 1019.7 |
| 20260508203003 | 56 | 357 | 0.9 | 3.5 | 0.00 | 0.00 | 0.00 | 73 | 1019.6 |
| 20260508202502 | 56 | 357 | 1.7 | 4.3 | 0.00 | 0.00 | 0.00 | 72 | 1019.6 |
| 20260508202005 | 56 | 356 | 1.7 | 4.3 | 0.00 | 0.00 | 0.00 | 72 | 1019.7 |
| 20260508201502 | 56 | 330 | 0.9 | 2.6 | 0.00 | 0.00 | 0.00 | 72 | 1019.7 |
| 20260508201014 | 57 | 356 | 0.0 | 1.7 | 0.00 | 0.00 | 0.00 | 71 | 1019.6 |
| 20260508200503 | 57 | 356 | 0.9 | 3.5 | 0.00 | 0.00 | 0.00 | 71 | 1019.6 |
| 20260508200001 | 57 | 9 | 1.7 | 3.5 | 0.00 | 0.00 | 0.00 | 71 | 1019.6 |
| 20260508195505 | 57 | 0 | 1.7 | 3.5 | 0.00 | 0.00 | 0.00 | 71 | 1019.6 |
| 20260508195003 | 57 | 349 | 1.7 | 3.5 | 0.00 | 0.00 | 0.00 | 71 | 1019.5 |
| 20260508194501 | 57 | 1 | 0.9 | 3.5 | 0.00 | 0.00 | 0.00 | 71 | 1019.5 |
| 20260508194011 | 57 | 27 | 0.0 | 2.6 | 0.00 | 0.00 | 0.00 | 71 | 1019.5 |
| 20260508193530 | 57 | 8 | 0.9 | 1.7 | 0.00 | 0.00 | 0.00 | 71 | 1019.5 |
| 20260508192459 | 57 | 12 | 0.0 | 1.7 | 0.00 | 0.00 | 0.00 | 70 | 1019.4 |
| 20260508192000 | 57 | 49 | 0.9 | 2.6 | 0.00 | 0.00 | 0.00 | 69 | 1019.3 |
| 20260508191504 | 58 | 48 | 1.7 | 4.3 | 0.00 | 0.00 | 0.00 | 69 | 1019.2 |
| 20260508191003 | 58 | 335 | 1.7 | 4.3 | 0.00 | 0.00 | 0.00 | 68 | 1019.3 |
| 20260508190501 | 58 | 16 | 0.9 | 2.6 | 0.00 | 0.00 | 0.00 | 69 | 1019.2 |
| 20260508190037 | 58 | 12 | 1.7 | 2.6 | 0.00 | 0.00 | 0.00 | 68 | 1019.1 |
| 20260508184952 | 59 | 335 | 1.7 | 2.6 | 0.00 | 0.00 | 0.00 | 67 | 1019.0 |
| 20260508184452 | 59 | 335 | 1.7 | 3.5 | 0.00 | 0.00 | 0.00 | 67 | 1019.0 |
| 20260508183953 | 59 | 354 | 1.7 | 4.3 | 0.00 | 0.00 | 0.00 | 66 | 1019.0 |
| 20260508183450 | 59 | 341 | 2.6 | 5.2 | 0.00 | 0.00 | 0.00 | 66 | 1018.9 |
| 20260508182952 | 59 | 330 | 3.5 | 6.1 | 0.00 | 0.00 | 0.00 | 66 | 1018.8 |
| 20260508182455 | 59 | 357 | 3.5 | 6.1 | 0.00 | 0.00 | 0.00 | 67 | 1018.8 |
| 20260508181950 | 59 | 12 | 2.6 | 6.1 | 0.00 | 0.00 | 0.00 | 66 | 1018.7 |
| 20260508181449 | 60 | 352 | 2.6 | 4.3 | 0.00 | 0.00 | 0.00 | 67 | 1018.8 |
| 20260508180949 | 60 | 330 | 3.5 | 4.3 | 0.00 | 0.00 | 0.00 | 67 | 1018.7 |
| 20260508180448 | 60 | 330 | 3.5 | 4.3 | 0.00 | 0.00 | 0.00 | 67 | 1018.8 |
| 20260508175945 | 60 | 358 | 3.5 | 7.0 | 0.00 | 0.00 | 0.00 | 66 | 1018.7 |
| 20260508175445 | 60 | 6 | 3.5 | 7.0 | 0.00 | 0.00 | 0.00 | 65 | 1018.7 |
| 20260508174944 | 60 | 335 | 3.5 | 6.1 | 0.00 | 0.00 | 0.00 | 66 | 1018.7 |
| 20260508174445 | 60 | 354 | 3.5 | 7.8 | 0.00 | 0.00 | 0.00 | 66 | 1018.6 |
| 20260508174027 | 61 | 347 | 4.3 | 8.7 | 0.00 | 0.00 | 0.00 | 65 | 1018.6 |
| 20260508172942 | 61 | 354 | 4.3 | 9.6 | 0.00 | 0.00 | 0.00 | 64 | 1018.6 |
| 20260508172443 | 61 | 345 | 4.3 | 7.8 | 0.00 | 0.00 | 0.00 | 64 | 1018.5 |
| 20260508171942 | 61 | 345 | 5.2 | 9.6 | 0.00 | 0.00 | 0.00 | 64 | 1018.4 |
| 20260508171442 | 61 | 302 | 5.2 | 9.6 | 0.00 | 0.00 | 0.00 | 63 | 1018.4 |
| 20260508171025 | 62 | 330 | 4.3 | 7.8 | 0.00 | 0.00 | 0.00 | 63 | 1018.4 |
| 20260508165942 | 62 | 357 | 4.3 | 7.8 | 0.00 | 0.00 | 0.00 | 64 | 1018.3 |
| 20260508165439 | 62 | 308 | 4.3 | 8.7 | 0.00 | 0.00 | 0.00 | 61 | 1018.2 |
| 20260508165004 | 62 | 351 | 4.3 | 8.7 | 0.00 | 0.00 | 0.00 | 61 | 1018.1 |
| 20260508163938 | 62 | 330 | 3.5 | 7.8 | 0.00 | 0.00 | 0.00 | 61 | 1018.0 |
| 20260508163439 | 63 | 347 | 3.5 | 8.7 | 0.00 | 0.00 | 0.00 | 62 | 1018.1 |
| 20260508162937 | 63 | 353 | 2.6 | 8.7 | 0.00 | 0.00 | 0.00 | 62 | 1018.0 |
| 20260508162435 | 63 | 352 | 3.5 | 7.8 | 0.00 | 0.00 | 0.00 | 63 | 1018.0 |
| 20260508161936 | 63 | 6 | 4.3 | 8.7 | 0.00 | 0.00 | 0.00 | 62 | 1018.0 |
| 20260508161509 | 63 | 8 | 5.2 | 10.4 | 0.00 | 0.00 | 0.00 | 61 | 1018.0 |
| 20260508160433 | 63 | 44 | 4.3 | 8.7 | 0.00 | 0.00 | 0.00 | 61 | 1018.0 |
| 20260508155933 | 63 | 49 | 4.3 | 8.7 | 0.00 | 0.00 | 0.00 | 62 | 1018.0 |
| 20260508155436 | 63 | 60 | 5.2 | 9.6 | 0.00 | 0.00 | 0.00 | 60 | 1018.0 |
| 20260508154933 | 63 | 3 | 4.3 | 9.6 | 0.00 | 0.00 | 0.00 | 60 | 1018.0 |
| 20260508154436 | 63 | 2 | 2.6 | 7.8 | 0.00 | 0.00 | 0.00 | 63 | 1018.1 |
| 20260508153935 | 63 | 357 | 2.6 | 5.2 | 0.00 | 0.00 | 0.00 | 55 | 1018.1 |
| 20260508153433 | 63 | 52 | 3.5 | 7.0 | 0.00 | 0.00 | 0.00 | 56 | 1018.2 |
| 20260508152934 | 64 | 68 | 3.5 | 7.0 | 0.00 | 0.00 | 0.00 | 56 | 1018.1 |
| 20260508152433 | 64 | 48 | 2.6 | 6.1 | 0.00 | 0.00 | 0.00 | 55 | 1018.3 |
| 20260508151934 | 64 | 108 | 1.7 | 3.5 | 0.00 | 0.00 | 0.00 | 54 | 1018.3 |
| 20260508151433 | 64 | 41 | 1.7 | 3.5 | 0.00 | 0.00 | 0.00 | 60 | 1018.2 |
| 20260508150934 | 64 | 4 | 2.6 | 4.3 | 0.00 | 0.00 | 0.00 | 57 | 1018.2 |
| 20260508150536 | 63 | 19 | 2.6 | 6.1 | 0.00 | 0.00 | 0.00 | 58 | 1018.3 |
| 20260508144930 | 62 | 31 | 1.7 | 7.0 | 0.00 | 0.00 | 0.00 | 54 | 1018.3 |
| 20260508144430 | 62 | 89 | 2.6 | 7.0 | 0.00 | 0.00 | 0.00 | 56 | 1018.3 |
| 20260508143931 | 62 | 87 | 2.6 | 6.1 | 0.00 | 0.00 | 0.00 | 55 | 1018.4 |
| 20260508143441 | 62 | 46 | 2.6 | 6.1 | 0.00 | 0.00 | 0.00 | 60 | 1018.5 |
| 20260508142930 | 62 | 60 | 1.7 | 6.1 | 0.00 | 0.00 | 0.00 | 58 | 1018.4 |
| 20260508142429 | 62 | 127 | 1.7 | 4.3 | 0.00 | 0.00 | 0.00 | 58 | 1018.4 |
| 20260508142050 | 62 | 128 | 3.5 | 8.7 | 0.00 | 0.00 | 0.00 | 56 | 1018.5 |
| 20260508141729 | 62 | 41 | 3.5 | 8.7 | 0.00 | 0.00 | 0.00 | 60 | 1018.4 |
| 20260508135430 | 62 | 96 | 2.6 | 6.1 | 0.00 | 0.00 | 0.00 | 62 | 1018.4 |
| 20260508134940 | 62 | 100 | 3.5 | 7.8 | 0.00 | 0.00 | 0.00 | 61 | 1018.5 |
| 20260508134431 | 62 | 79 | 3.5 | 7.8 | 0.00 | 0.00 | 0.00 | 63 | 1018.5 |
| 20260508133946 | 62 | 81 | 2.6 | 7.0 | 0.00 | 0.00 | 0.00 | 64 | 1018.4 |
| 20260508133551 | 63 | 62 | 3.5 | 8.7 | 0.00 | 0.00 | 0.00 | 63 | 1018.6 |
| 20260508132432 | 65 | 106 | 3.5 | 7.0 | 0.00 | 0.00 | 0.00 | 63 | 1018.6 |
| 20260508132009 | 65 | 67 | 2.6 | 7.0 | 0.00 | 0.00 | 0.00 | 59 | 1018.6 |
| 20260508131619 | 65 | 71 | 1.7 | 7.0 | 0.00 | 0.00 | 0.00 | 63 | 1018.6 |
| 20260508125936 | 65 | 178 | 2.6 | 8.7 | 0.00 | 0.00 | 0.00 | 57 | 1018.8 |
| 20260508125529 | 65 | 104 | 1.7 | 7.0 | 0.00 | 0.00 | 0.00 | 59 | 1018.8 |
| 20260508124526 | 65 | 52 | 1.7 | 7.0 | 0.00 | 0.00 | 0.00 | 60 | 1018.8 |
| 20260508123426 | 63 | 70 | 3.5 | 7.0 | 0.00 | 0.00 | 0.00 | 66 | 1018.9 |
| 20260508122928 | 63 | 325 | 3.5 | 8.7 | 0.00 | 0.00 | 0.00 | 66 | 1018.9 |
| 20260508122423 | 63 | 5 | 3.5 | 8.7 | 0.00 | 0.00 | 0.00 | 67 | 1018.9 |
| 20260508121922 | 64 | 33 | 1.7 | 7.0 | 0.00 | 0.00 | 0.00 | 63 | 1018.9 |
| 20260508121422 | 64 | 134 | 2.6 | 6.1 | 0.00 | 0.00 | 0.00 | 65 | 1018.9 |
| 20260508120922 | 64 | 120 | 4.3 | 9.6 | 0.00 | 0.00 | 0.00 | 66 | 1019.0 |
| 20260508120432 | 63 | 144 | 3.5 | 9.6 | 0.00 | 0.00 | 0.00 | 68 | 1019.0 |
| 20260508115934 | 63 | 58 | 1.7 | 5.2 | 0.00 | 0.00 | 0.00 | 68 | 1018.9 |
| 20260508115503 | 63 | 136 | 3.5 | 8.7 | 0.00 | 0.00 | 0.00 | 63 | 1019.1 |
| 20260508114424 | 64 | 125 | 1.7 | 3.5 | 0.00 | 0.00 | 0.00 | 67 | 1019.0 |
| 20260508113959 | 62 | 101 | 2.6 | 7.0 | 0.00 | 0.00 | 0.00 | 68 | 1019.0 |
| 20260508112930 | 62 | 65 | 3.5 | 7.8 | 0.00 | 0.00 | 0.00 | 73 | 1019.0 |
| 20260508112501 | 62 | 71 | 3.5 | 7.8 | 0.00 | 0.00 | 0.00 | 72 | 1019.1 |
| 20260508111502 | 62 | 358 | 3.5 | 7.8 | 0.00 | 0.00 | 0.00 | 74 | 1019.1 |
| 20260508110427 | 61 | 66 | 3.5 | 8.7 | 0.00 | 0.00 | 0.00 | 75 | 1019.2 |
| 20260508105925 | 61 | 351 | 3.5 | 8.7 | 0.00 | 0.00 | 0.00 | 72 | 1019.2 |
| 20260508105419 | 61 | 179 | 2.6 | 7.0 | 0.00 | 0.00 | 0.00 | 73 | 1019.2 |
| 20260508104922 | 61 | 70 | 2.6 | 7.0 | 0.00 | 0.00 | 0.00 | 75 | 1019.1 |
| 20260508104414 | 60 | 19 | 3.5 | 7.0 | 0.00 | 0.00 | 0.00 | 75 | 1019.2 |
| 20260508103917 | 60 | 10 | 3.5 | 7.0 | 0.00 | 0.00 | 0.00 | 75 | 1019.3 |
| 20260508103415 | 60 | 45 | 2.6 | 7.0 | 0.00 | 0.00 | 0.00 | 75 | 1019.3 |
| 20260508102921 | 59 | 75 | 2.6 | 7.0 | 0.00 | 0.00 | 0.00 | 76 | 1019.2 |
| 20260508102416 | 59 | 117 | 1.7 | 4.3 | 0.00 | 0.00 | 0.00 | 77 | 1019.3 |
| 20260508101918 | 58 | 106 | 2.6 | 8.7 | 0.00 | 0.00 | 0.00 | 77 | 1019.2 |
| 20260508101502 | 58 | 100 | 4.3 | 8.7 | 0.00 | 0.00 | 0.00 | 78 | 1019.3 |
| 20260508100413 | 58 | 9 | 3.5 | 7.8 | 0.00 | 0.00 | 0.00 | 79 | 1019.3 |
| 20260508095914 | 58 | 33 | 4.3 | 7.8 | 0.00 | 0.00 | 0.00 | 79 | 1019.3 |
| 20260508095414 | 58 | 83 | 5.2 | 7.8 | 0.00 | 0.00 | 0.00 | 79 | 1019.3 |
| 20260508094914 | 58 | 35 | 3.5 | 7.8 | 0.00 | 0.00 | 0.00 | 80 | 1019.3 |
| 20260508094415 | 58 | 64 | 3.5 | 7.8 | 0.00 | 0.00 | 0.00 | 82 | 1019.3 |
| 20260508093913 | 57 | 43 | 4.3 | 7.8 | 0.00 | 0.00 | 0.00 | 81 | 1019.2 |
| 20260508093412 | 57 | 60 | 5.2 | 7.8 | 0.00 | 0.00 | 0.00 | 81 | 1019.2 |
| 20260508092912 | 57 | 63 | 5.2 | 7.8 | 0.00 | 0.00 | 0.00 | 82 | 1019.2 |
| 20260508092409 | 56 | 74 | 5.2 | 7.8 | 0.00 | 0.00 | 0.00 | 82 | 1019.2 |
| 20260508091910 | 56 | 35 | 4.3 | 7.8 | 0.00 | 0.00 | 0.00 | 82 | 1019.3 |
| 20260508091407 | 56 | 78 | 3.5 | 6.1 | 0.00 | 0.00 | 0.00 | 82 | 1019.2 |
| 20260508090906 | 56 | 70 | 3.5 | 6.1 | 0.00 | 0.00 | 0.00 | 82 | 1019.2 |
| 20260508090407 | 56 | 25 | 4.3 | 8.7 | 0.00 | 0.00 | 0.00 | 83 | 1019.2 |
| 20260508085904 | 56 | 60 | 4.3 | 8.7 | 0.00 | 0.00 | 0.00 | 83 | 1019.2 |
| 20260508085404 | 56 | 49 | 4.3 | 7.0 | 0.00 | 0.00 | 0.00 | 84 | 1019.3 |
| 20260508084904 | 56 | 70 | 3.5 | 7.0 | 0.00 | 0.00 | 0.00 | 84 | 1019.2 |
| 20260508084405 | 56 | 50 | 3.5 | 7.0 | 0.00 | 0.00 | 0.00 | 85 | 1019.2 |
| 20260508083906 | 56 | 40 | 4.3 | 7.0 | 0.00 | 0.00 | 0.00 | 85 | 1019.2 |
| 20260508083404 | 55 | 23 | 4.3 | 7.8 | 0.00 | 0.00 | 0.00 | 84 | 1019.2 |
| 20260508082904 | 55 | 62 | 4.3 | 7.8 | 0.00 | 0.00 | 0.00 | 85 | 1019.1 |
| 20260508082408 | 55 | 71 | 4.3 | 7.0 | 0.00 | 0.00 | 0.00 | 85 | 1019.1 |
| 20260508081902 | 55 | 30 | 3.5 | 7.0 | 0.00 | 0.00 | 0.00 | 85 | 1019.1 |
| 20260508081400 | 55 | 70 | 2.6 | 6.1 | 0.00 | 0.00 | 0.00 | 86 | 1019.1 |
| 20260508080903 | 54 | 68 | 3.5 | 6.1 | 0.00 | 0.00 | 0.00 | 86 | 1019.1 |
| 20260508080404 | 54 | 33 | 2.6 | 6.1 | 0.00 | 0.00 | 0.00 | 86 | 1019.0 |
| 20260508075902 | 54 | 81 | 3.5 | 7.0 | 0.00 | 0.00 | 0.00 | 86 | 1019.1 |
| 20260508075401 | 54 | 74 | 4.3 | 7.0 | 0.00 | 0.00 | 0.00 | 86 | 1019.1 |
| 20260508074901 | 54 | 75 | 3.5 | 6.1 | 0.00 | 0.00 | 0.00 | 86 | 1019.0 |
| 20260508074403 | 53 | 56 | 3.5 | 7.8 | 0.00 | 0.00 | 0.00 | 86 | 1019.1 |
| 20260508073901 | 53 | 51 | 3.5 | 7.8 | 0.00 | 0.00 | 0.00 | 86 | 1018.9 |
| 20260508073358 | 53 | 77 | 3.5 | 7.8 | 0.00 | 0.00 | 0.00 | 86 | 1019.1 |
| 20260508072959 | 53 | 58 | 4.3 | 7.8 | 0.00 | 0.00 | 0.00 | 86 | 1019.0 |
| 20260508071934 | 53 | 78 | 4.3 | 7.0 | 0.00 | 0.00 | 0.00 | 87 | 1018.9 |
| 20260508070944 | 53 | 70 | 4.3 | 6.1 | 0.00 | 0.00 | 0.00 | 87 | 1019.0 |